Eagle River, WI

7:23 PM CDT on September 29, 2016 (GMT -0500)
Eagle River Union

Weather History for KEGV - March, 2012

Change the Weather History Date:

Saturday, March 10, 2012

  Actual Average Record
Temperature  
Mean Temperature 38 °F -  
Max Temperature 51 °F 33 °F 55 °F (2015)
Min Temperature 24 °F 14 °F -9 °F (2008)
Degree Days  
Heating Degree Days 28    
Moisture  
Dew Point 18 °F    
Average Humidity 46    
Maximum Humidity 59    
Minimum Humidity 33    
Precipitation  
Precipitation 0.00 in - - ()
Sea Level Pressure  
Sea Level Pressure 29.98 in    
Wind  
Wind Speed 12 mph (SSW)    
Max Wind Speed 21 mph    
Max Gust Speed 28 mph    
Visibility 10 miles    
Events      
Averages and records for this station are not official NWS values.
T = Trace of Precipitation, MM = Missing Value Source: NWS Daily Summary

Daily Weather History Graph

Daily Weather History Graph

Search for Another Location

Airport or City:

Trip Planner

Search our weather history database for the weather conditions in past years. The results will help you decide how hot, cold, wet, or windy it might be!

Date:

Astronomy

Mar. 10, 2012 Rise Set
Actual Time 6:18 AM CST 5:56 PM CST
Civil Twilight 5:48 AM CST 6:26 PM CST
Nautical Twilight 5:14 AM CST 7:01 PM CST
Astronomical Twilight 4:38 AM CST 7:36 PM CST
Moon 9:23 PM CST (3/10) 7:01 AM CST (3/10)
Length of Visible Light 12h 38m
Length of Day
11h 38m
Waning Gibbous, 92% of the Moon is Illuminated
Mar 10
Waning Gibbous
Mar 14
Last Quarter
Mar 22
New
Mar 30
First Quarter
Apr 6
Full

Hourly Weather History & Observations

Time (CST) Temp. Windchill Dew Point Humidity Pressure Visibility Wind Dir Wind Speed Gust Speed Precip Events Conditions
12:15 AM 24.8 °F 15.3 °F 5.0 °F 43% 30.28 in 10.0 mi South 9.2 mph - N/A   Overcast
12:55 AM 24.8 °F 15.3 °F 5.0 °F 43% 30.25 in 10.0 mi South 9.2 mph - N/A   Overcast
1:15 AM 24.8 °F 14.6 °F 6.8 °F 46% 30.24 in 10.0 mi South 10.4 mph - N/A   Scattered Clouds
1:35 AM 24.8 °F 14.6 °F 6.8 °F 46% 30.23 in 10.0 mi South 10.4 mph - N/A   Mostly Cloudy
1:55 AM 24.8 °F 14.6 °F 6.8 °F 46% 30.21 in 10.0 mi South 10.4 mph 16.1 mph N/A   Scattered Clouds
2:15 AM 24.8 °F 14.6 °F 6.8 °F 46% 30.18 in 10.0 mi South 10.4 mph 17.3 mph N/A   Clear
2:35 AM 24.8 °F 14.0 °F 6.8 °F 46% 30.17 in 10.0 mi South 11.5 mph 16.1 mph N/A   Clear
2:55 AM 24.8 °F 14.6 °F 6.8 °F 46% 30.15 in 10.0 mi SSE 10.4 mph 16.1 mph N/A   Clear
3:15 AM 24.8 °F 13.4 °F 8.6 °F 50% 30.14 in 10.0 mi South 12.7 mph 17.3 mph N/A   Clear
3:35 AM 24.8 °F 13.4 °F 8.6 °F 50% 30.12 in 10.0 mi South 12.7 mph 21.9 mph N/A   Scattered Clouds
3:55 AM 24.8 °F 13.4 °F 8.6 °F 50% 30.11 in 10.0 mi South 12.7 mph 19.6 mph N/A   Scattered Clouds
4:15 AM 26.6 °F 16.2 °F 8.6 °F 47% 30.10 in 10.0 mi South 11.5 mph 21.9 mph N/A   Clear
4:35 AM 24.8 °F 12.9 °F 10.4 °F 54% 30.09 in 10.0 mi South 13.8 mph 24.2 mph N/A   Clear
4:55 AM 26.6 °F 16.2 °F 10.4 °F 51% 30.09 in 10.0 mi South 11.5 mph 20.7 mph N/A   Clear
5:15 AM 26.6 °F 16.2 °F 10.4 °F 51% 30.07 in 10.0 mi South 11.5 mph 17.3 mph N/A   Clear
5:35 AM 26.6 °F 16.8 °F 10.4 °F 51% 30.06 in 10.0 mi South 10.4 mph 20.7 mph N/A   Clear
5:55 AM 26.6 °F 17.5 °F 12.2 °F 55% 30.04 in 10.0 mi South 9.2 mph 20.7 mph N/A   Clear
6:15 AM 26.6 °F 16.2 °F 12.2 °F 55% 30.03 in 10.0 mi South 11.5 mph 18.4 mph N/A   Clear
6:35 AM 26.6 °F 16.8 °F 12.2 °F 55% 30.02 in 10.0 mi South 10.4 mph 19.6 mph N/A   Clear
6:55 AM 26.6 °F 15.2 °F 12.2 °F 55% 30.01 in 10.0 mi South 13.8 mph 25.3 mph N/A   Clear
7:15 AM 26.6 °F 14.7 °F 14.0 °F 59% 30.00 in 10.0 mi South 15.0 mph 20.7 mph N/A   Clear
7:35 AM 26.6 °F 16.2 °F 14.0 °F 59% 29.99 in 10.0 mi South 11.5 mph 20.7 mph N/A   Clear
7:55 AM 28.4 °F 20.4 °F 14.0 °F 55% 29.97 in 10.0 mi South 8.1 mph - N/A   Clear
8:15 AM 30.2 °F 20.2 °F 14.0 °F 51% 29.96 in 10.0 mi South 12.7 mph 20.7 mph N/A   Clear
8:55 AM 32.0 °F 23.0 °F 17.6 °F 55% 29.95 in 10.0 mi SSW 11.5 mph 20.7 mph N/A   Clear
9:15 AM 33.8 °F 25.3 °F 17.6 °F 52% 29.93 in 10.0 mi SSW 11.5 mph 24.2 mph N/A   Clear
9:35 AM 35.6 °F 27.5 °F 19.4 °F 52% 29.92 in 10.0 mi SSW 11.5 mph 25.3 mph N/A   Clear
9:55 AM 37.4 °F 28.2 °F 19.4 °F 48% 29.92 in 10.0 mi SW 16.1 mph 24.2 mph N/A   Clear
10:15 AM 37.4 °F 28.5 °F 19.4 °F 48% 29.92 in 10.0 mi SSW 15.0 mph 21.9 mph N/A   Clear
10:35 AM 41.0 °F 32.5 °F 21.2 °F 45% 29.91 in 10.0 mi SW 17.3 mph 24.2 mph N/A   Clear
10:55 AM 41.0 °F 32.8 °F 21.2 °F 45% 29.90 in 10.0 mi SW 16.1 mph 23.0 mph N/A   Clear
11:15 AM 42.8 °F 34.8 °F 21.2 °F 42% 29.90 in 10.0 mi SW 17.3 mph 25.3 mph N/A   Clear
11:35 AM 42.8 °F 34.3 °F 21.2 °F 42% 29.89 in 10.0 mi SW 19.6 mph 25.3 mph N/A   Clear
11:55 AM 44.6 °F 36.6 °F 21.2 °F 39% 29.89 in 10.0 mi SW 19.6 mph 26.5 mph N/A   Clear
12:15 PM 44.6 °F 36.4 °F 23.0 °F 43% 29.88 in 10.0 mi WSW 20.7 mph 27.6 mph N/A   Clear
12:35 PM 44.6 °F 38.8 °F 23.0 °F 43% 29.88 in 10.0 mi SW 11.5 mph 26.5 mph N/A   Clear
12:55 PM 46.4 °F 39.0 °F 23.0 °F 40% 29.89 in 10.0 mi WSW 19.6 mph 26.5 mph N/A   Clear
1:15 PM 46.4 °F 40.7 °F 23.0 °F 40% 29.88 in 10.0 mi SW 12.7 mph 21.9 mph N/A   Clear
1:35 PM 50.0 °F - 23.0 °F 35% 29.88 in 10.0 mi SW 17.3 mph 26.5 mph N/A   Clear
1:55 PM 50.0 °F - 23.0 °F 35% 29.87 in 10.0 mi SW 15.0 mph 24.2 mph N/A   Clear
2:15 PM 50.0 °F - 23.0 °F 35% 29.87 in 10.0 mi WSW 16.1 mph 24.2 mph N/A   Clear
2:55 PM 51.8 °F - 23.0 °F 33% 29.88 in 10.0 mi SW 15.0 mph 20.7 mph N/A   Clear
3:15 PM 51.8 °F - 23.0 °F 33% 29.88 in 10.0 mi SW 13.8 mph 23.0 mph N/A   Clear
3:35 PM 51.8 °F - 23.0 °F 33% 29.88 in 10.0 mi SW 13.8 mph 18.4 mph N/A   Clear
3:55 PM 51.8 °F - 23.0 °F 33% 29.87 in 10.0 mi SW 18.4 mph 21.9 mph N/A   Clear
4:15 PM 51.8 °F - 23.0 °F 33% 29.88 in 10.0 mi SW 18.4 mph 24.2 mph N/A   Clear
4:35 PM 51.8 °F - 23.0 °F 33% 29.88 in 10.0 mi WSW 16.1 mph - N/A   Clear
4:55 PM 50.0 °F - 24.8 °F 37% 29.89 in 10.0 mi WSW 11.5 mph 19.6 mph N/A   Clear
5:15 PM 48.2 °F - 26.6 °F 43% 29.89 in 10.0 mi SW 10.4 mph - N/A   Clear
5:35 PM 48.2 °F - 26.6 °F 43% 29.90 in 10.0 mi WSW 9.2 mph - N/A   Clear
5:55 PM 46.4 °F 42.4 °F 26.6 °F 46% 29.90 in 10.0 mi WSW 8.1 mph - N/A   Clear
6:15 PM 44.6 °F 40.2 °F 28.4 °F 53% 29.91 in 10.0 mi WSW 8.1 mph - N/A   Clear
6:35 PM 44.6 °F 41.4 °F 26.6 °F 49% 29.91 in 10.0 mi WSW 5.8 mph - N/A   Clear
6:55 PM 42.8 °F 39.3 °F 26.6 °F 53% 29.91 in 10.0 mi SW 5.8 mph - N/A   Clear
7:15 PM 44.6 °F 41.4 °F 26.6 °F 49% 29.92 in 10.0 mi SW 5.8 mph - N/A   Clear
7:35 PM 44.6 °F 42.2 °F 26.6 °F 49% 29.93 in 10.0 mi SW 4.6 mph - N/A   Clear
7:55 PM 42.8 °F - 26.6 °F 53% 29.93 in 10.0 mi Calm Calm - N/A   Clear
8:15 PM 41.0 °F 38.0 °F 26.6 °F 57% 29.93 in 10.0 mi SW 4.6 mph - N/A   Clear
8:35 PM 42.8 °F 39.3 °F 26.6 °F 53% 29.93 in 10.0 mi SW 5.8 mph - N/A   Clear
8:55 PM 42.8 °F 39.3 °F 28.4 °F 57% 29.94 in 10.0 mi SW 5.8 mph - N/A   Clear
9:15 PM 42.8 °F 39.3 °F 28.4 °F 57% 29.94 in 10.0 mi SW 5.8 mph - N/A   Clear
9:55 PM 44.6 °F 40.2 °F 28.4 °F 53% 29.94 in 10.0 mi SW 8.1 mph - N/A   Clear
10:15 PM 44.6 °F 39.7 °F 28.4 °F 53% 29.94 in 10.0 mi SW 9.2 mph - N/A   Clear
10:35 PM 44.6 °F 39.7 °F 28.4 °F 53% 29.94 in 10.0 mi SW 9.2 mph - N/A   Clear
10:55 PM 44.6 °F 40.2 °F 28.4 °F 53% 29.94 in 10.0 mi SW 8.1 mph - N/A   Clear
11:15 PM 44.6 °F 39.7 °F 28.4 °F 53% 29.94 in 10.0 mi SW 9.2 mph - N/A   Clear
11:55 PM 42.8 °F 38.0 °F 28.4 °F 57% 29.95 in 10.0 mi SW 8.1 mph - N/A   Clear